OZ0AJ-13 Weather Reports


time (UTC)temp
F
wind
direction
speed
knots
gust
knots
rain 1hr
in
rain 24hr
in
rain mn
in
humidity
%
barometer
mb
20260507133527 59 19 2.6 7.8 0.00 0.00 0.00 56 1017.4
20260507132523 60 19 2.6 7.8 0.00 0.00 0.00 57 1017.4
20260507131519 60 19 2.6 7.8 0.00 0.00 0.00 56 1017.4
20260507125532 59 19 2.6 7.8 0.00 0.00 0.00 54 1017.4
20260507124530 60 19 2.6 7.8 0.00 0.00 0.00 53 1017.1
20260507123524 59 19 2.6 7.8 0.00 0.00 0.00 54 1017.1
20260507122520 59 19 2.6 7.8 0.00 0.00 0.00 55 1017.2
20260507121516 58 19 2.6 7.8 0.00 0.00 0.00 58 1017.1
20260507120533 57 19 2.6 7.8 0.00 0.00 0.00 60 1017.1
20260507115529 56 19 2.6 7.8 0.00 0.00 0.00 58 1017.1
20260507114525 56 19 2.6 7.8 0.00 0.00 0.00 59 1017.1
20260507113521 56 19 2.6 7.8 0.00 0.00 0.00 61 1017.0
20260507112517 56 19 2.6 7.8 0.00 0.00 0.00 60 1017.2
20260507111533 56 19 2.6 7.8 0.00 0.00 0.00 61 1017.3
20260507110529 56 19 2.6 7.8 0.00 0.00 0.00 64 1017.1
20260507105525 55 19 2.6 7.8 0.00 0.00 0.00 68 1017.1
20260507104522 54 19 2.6 7.8 0.00 0.00 0.00 69 1017.0
20260507103518 54 19 2.6 7.8 0.00 0.00 0.00 71 1017.0
20260507102534 56 19 2.6 7.8 0.00 0.00 0.00 65 1017.0
20260507101530 55 19 2.6 7.8 0.00 0.00 0.00 66 1017.0
20260507100526 55 19 2.6 7.8 0.00 0.00 0.00 67 1016.9
20260507095522 54 19 2.6 7.8 0.00 0.00 0.00 68 1016.9
20260507094518 54 19 2.6 7.8 0.00 0.00 0.00 68 1016.8
20260507093534 54 19 2.6 7.8 0.00 0.00 0.00 72 1016.7
20260507092530 53 19 2.6 7.8 0.00 0.00 0.00 72 1016.6
20260507091526 53 19 2.6 7.8 0.00 0.00 0.00 73 1016.6
20260507090522 53 19 2.6 7.8 0.00 0.00 0.00 73 1016.6
20260507085518 52 19 2.6 7.8 0.00 0.00 0.00 74 1016.5
20260507084535 52 19 2.6 7.8 0.00 0.00 0.00 74 1016.5
20260507083531 52 19 2.6 7.8 0.00 0.00 0.00 75 1016.3
20260507082527 51 19 2.6 7.8 0.00 0.00 0.00 74 1016.4
20260507081523 51 19 2.6 7.8 0.00 0.00 0.00 75 1016.3
20260507080519 51 19 2.6 7.8 0.00 0.00 0.00 75 1016.2
20260507075535 51 19 2.6 7.8 0.00 0.00 0.00 76 1016.2
20260507074531 51 19 2.6 7.8 0.00 0.00 0.00 76 1016.1
20260507042527 42 19 2.6 7.8 0.00 0.00 0.00 75 1014.9
20260507041523 42 19 2.6 7.8 0.00 0.00 0.00 75 1014.7
20260507040519 42 19 2.6 7.8 0.00 0.00 0.00 74 1014.6
20260507035535 42 19 2.6 7.8 0.00 0.00 0.00 74 1014.5
20260507034531 42 19 2.6 7.8 0.00 0.00 0.00 73 1014.6
20260507033526 43 19 2.6 7.8 0.00 0.00 0.00 73 1014.4
20260507032522 43 19 2.6 7.8 0.00 0.00 0.00 72 1014.3
20260507031518 43 19 2.6 7.8 0.00 0.00 0.00 71 1014.3
20260507030534 44 19 2.6 7.8 0.00 0.00 0.00 70 1014.3
20260507025530 44 19 2.6 7.8 0.00 0.00 0.00 69 1014.4
20260507024526 44 19 2.6 7.8 0.00 0.00 0.00 68 1014.3
20260507023522 45 19 2.6 7.8 0.00 0.00 0.00 68 1014.2
20260507022517 45 19 2.6 7.8 0.00 0.00 0.00 67 1014.2
20260507021533 45 19 2.6 7.8 0.00 0.00 0.00 66 1014.0
20260507020530 46 19 2.6 7.8 0.00 0.00 0.00 65 1014.0
20260507015525 46 19 2.6 7.8 0.00 0.00 0.00 65 1014.0
20260507014521 46 19 2.6 7.8 0.00 0.00 0.00 64 1013.9
20260507013517 46 19 2.6 7.8 0.00 0.00 0.00 64 1013.8
20260507012533 46 19 2.6 7.8 0.00 0.00 0.00 64 1013.8
20260507011529 46 19 2.6 7.8 0.00 0.00 0.00 64 1013.8
20260507010525 46 19 2.6 7.8 0.00 0.00 0.00 64 1013.7
20260507005521 46 19 2.6 7.8 0.00 0.00 0.00 65 1013.6
20260507004517 46 19 2.6 7.8 0.00 0.00 0.00 65 1013.6
20260507003533 46 19 2.6 7.8 0.00 0.00 0.00 65 1013.5
20260507002528 46 19 2.6 7.8 0.00 0.00 0.00 65 1013.5
20260507001524 46 19 2.6 7.8 0.00 0.00 0.00 64 1013.5
20260507000520 46 19 2.6 7.8 0.00 0.00 0.00 64 1013.4
20260506235515 46 19 2.6 7.8 0.00 0.00 0.00 64 1013.4
20260506234531 46 19 2.6 7.8 0.00 0.00 0.00 65 1013.4
20260506233527 46 19 2.6 7.8 0.00 0.00 0.00 65 1013.3
20260506232522 46 19 2.6 7.8 0.00 0.00 0.00 65 1013.3
20260506231518 46 19 2.6 7.8 0.00 0.00 0.00 64 1013.4
20260506230534 46 19 2.6 7.8 0.00 0.00 0.00 65 1013.2
20260506225530 46 19 2.6 7.8 0.00 0.00 0.00 64 1013.2
20260506224526 47 19 2.6 7.8 0.00 0.00 0.00 64 1013.2
20260506223521 47 19 2.6 7.8 0.00 0.00 0.00 64 1013.1
20260506222517 47 19 2.6 7.8 0.00 0.00 0.00 64 1013.2
20260506221533 47 19 2.6 7.8 0.00 0.00 0.00 64 1013.1
20260506220528 47 19 2.6 7.8 0.00 0.00 0.00 63 1013.1
20260506215524 47 19 2.6 7.8 0.00 0.00 0.00 64 1013.0
20260506214519 47 19 2.6 7.8 0.00 0.00 0.00 65 1012.8
20260506213535 47 19 2.6 7.8 0.00 0.00 0.00 66 1012.8
20260506212531 47 19 2.6 7.8 0.00 0.00 0.00 67 1012.7
20260506211526 47 19 2.6 7.8 0.00 0.00 0.00 67 1012.7
20260506210521 48 19 2.6 7.8 0.00 0.00 0.00 67 1012.8
20260506205517 48 19 2.6 7.8 0.00 0.00 0.00 67 1012.8
20260506204533 48 19 2.6 7.8 0.00 0.00 0.00 67 1012.7
20260506203529 48 19 2.6 7.8 0.00 0.00 0.00 67 1012.6
20260506202524 48 19 2.6 7.8 0.00 0.00 0.00 67 1012.6
20260506201520 48 19 2.6 7.8 0.00 0.00 0.00 67 1012.5
20260506200516 49 19 2.6 7.8 0.00 0.00 0.00 67 1012.4
20260506195532 49 19 2.6 7.8 0.00 0.00 0.00 67 1012.4
20260506194528 49 19 2.6 7.8 0.00 0.00 0.00 67 1012.2
20260506193523 49 19 2.6 7.8 0.00 0.00 0.00 67 1012.1
20260506192519 49 19 2.6 7.8 0.00 0.00 0.00 66 1012.1
20260506191535 49 19 2.6 7.8 0.00 0.00 0.00 66 1011.9
20260506190531 49 19 2.6 7.8 0.00 0.00 0.00 66 1011.8
20260506185526 49 19 2.6 7.8 0.00 0.00 0.00 66 1011.8
20260506183518 50 19 2.6 7.8 0.00 0.00 0.00 65 1011.7
20260506182535 50 19 2.6 7.8 0.00 0.00 0.00 64 1011.5
20260506181530 50 19 2.6 7.8 0.00 0.00 0.00 63 1011.5
20260506180526 51 19 2.6 7.8 0.00 0.00 0.00 62 1011.4
20260506175522 51 19 2.6 7.8 0.00 0.00 0.00 62 1011.4
20260506174518 51 19 2.6 7.8 0.00 0.00 0.00 61 1011.4
20260506173534 52 19 2.6 7.8 0.00 0.00 0.00 59 1011.3
20260506172529 52 19 2.6 7.8 0.00 0.00 0.00 59 1011.1
20260506171525 53 19 2.6 7.8 0.00 0.00 0.00 58 1011.1
20260506170521 53 19 2.6 7.8 0.00 0.00 0.00 57 1011.1